Wind_Gust
6 7 7 6 3 3 5 5 7 9 6 8 8 7 22 3 9 12 7 5 13 8 6 14 13 6 11 18 25 19 18 9 4 18 12 18 12 18 23 27 22 19 19 16 16 16 16 18 20 21 22 20 20 20 20 20 20 20 19 19 19 18 17 17 18 17 16 18 18 18 18 18 17 18 17 16 16 16 16 18 17 18 18 18 19 19 20 20 19 18 17 17 17 16 15 15 15
5 7 7 6 4 3 6 2 8 3 5 5 17 4 13 11 9 18 8 5 10 15 16 24 28 31 29 26 20 25 26 19 15 18 22 22 18 18 21 26 22 24 16 17 18 16 15 18 20 20 21 21 20 20 21 20 20 20 19 18 19 18 17 17 17 18 18 17 18 19 19 18 19 18 19 18 18 17 16 17 18 19 19 19 19 20 19 19 17 17 16 16 16 15 13 13 14
5 10 9 9 4 5 5 4 9 7 8 10 18 13 7 16 13 16 10 18 17 17 18 18 18 13 13 7 21 12 9 15 26 23 26 20 23 13 18 21 19 19 18 16 19 18 14 16 20 21 21 21 20 21 20 20 20 19 19 18 18 17 17 18 18 17 15 17 17 17 19 19 19 20 19 19 18 17 17 17 18 18 19 19 18 17 18 18 17 16 16 16 15 13 12 11 13
5 3 5 4 7 5 4 6 5 12 10 14 15 10 10 13 11 6 20 20 14 15 13 10 15 11 16 28 22 23 19 19 18 23 30 15 19 20 17 20 17 17 16 17 15 16 14 18 19 20 20 21 20 21 20 20 20 20 19 18 17 16 17 17 17 16 15 16 18 18 19 19 20 20 19 19 17 16 16 16 17 18 17 17 17 17 17 17 17 17 16 15 13 12 11 11 12
5 3 2 6 6 6 5 9 8 10 10 15 13 10 6 6 9 5 8 9 13 17 19 17 26 14 20 17 5 12 14 17 16 13 24 17 20 22 20 19 19 18 16 14 14 16 16 21 19 18 19 20 20 19 19 20 20 19 18 17 17 17 17 18 17 16 16 16 17 18 18 19 19 19 19 18 17 17 17 16 16 16 16 16 16 16 16 15 16 15 15 14 12 11 11 12 12
3 4 2 5 6 6 8 6 9 9 17 10 8 8 7 10 6 6 13 13 10 14 14 13 21 11 19 13 13 18 14 15 18 17 26 20 24 23 22 20 19 18 15 13 13 13 16 19 19 18 18 20 20 19 18 19 20 19 18 18 17 16 16 17 17 17 16 15 15 16 17 19 19 19 18 18 18 17 16 16 15 14 14 14 14 15 15 15 15 15 13 12 10 11 10 10 10
6 7 4 3 7 4 9 6 10 10 22 10 20 7 11 18 15 4 20 19 12 17 20 29 27 22 25 18 22 18 15 20 18 21 21 25 23 22 20 20 19 17 16 14 12 14 17 19 19 19 18 19 19 19 19 19 19 18 18 17 16 15 16 15 16 17 15 14 14 16 18 19 18 19 18 17 17 16 15 15 15 15 14 13 13 14 15 15 14 14 12 10 10 10 9 8 8
1 7 4 5 7 5 6 8 13 11 15 11 8 9 14 23 20 9 15 24 13 20 8 18 19 37 16 9 21 14 19 23 26 24 27 26 21 21 22 20 19 17 16 14 13 14 21 19 19 18 18 18 19 19 19 18 17 17 18 17 16 16 14 15 15 15 14 15 16 16 18 18 18 19 18 17 16 16 15 15 15 15 15 14 14 14 14 14 13 12 11 9 8 8 8 8 9
3 4 5 8 4 6 6 12 17 10 17 10 12 11 19 22 10 7 6 14 14 15 19 17 24 28 11 21 22 17 27 25 27 25 24 25 23 22 22 19 21 19 18 17 15 14 15 18 18 18 18 17 18 19 18 18 17 17 17 16 16 15 13 13 15 15 14 14 15 16 17 18 18 17 17 16 15 15 15 14 15 15 14 14 14 14 13 12 12 11 10 8 8 8 9 10 10
3 5 5 10 7 6 7 16 7 12 13 10 12 14 19 23 9 5 15 16 20 17 10 10 25 31 22 26 23 14 24 23 24 24 23 25 24 21 19 20 20 22 19 18 15 15 14 20 17 17 16 16 17 17 17 16 16 16 15 15 13 12 13 12 14 15 15 16 16 15 16 16 17 17 16 15 15 15 15 14 14 15 14 14 14 13 12 11 10 11 9 7 8 8 9 9 10
7 5 5 4 3 8 14 13 10 17 15 11 12 19 22 26 19 9 11 19 14 26 20 32 33 25 25 16 19 9 18 19 18 21 22 23 21 17 17 18 19 18 19 16 14 13 14 13 19 16 15 15 15 14 13 14 14 13 13 12 12 13 13 14 15 15 15 15 15 16 17 16 16 15 15 14 14 14 14 13 14 14 13 13 12 12 11 10 10 10 8 6 6 7 7 9 9
5 4 5 4 9 10 9 10 12 16 15 10 18 20 22 22 14 10 25 25 17 19 16 12 23 32 24 22 15 12 15 16 20 23 23 22 19 18 18 16 16 17 17 15 12 11 10 11 12 19 16 15 14 14 13 14 14 13 12 11 12 12 12 14 14 14 14 15 14 14 15 14 14 15 14 14 13 13 13 13 13 13 14 12 11 11 11 11 9 8 7 5 5 5 7 8 9
7 2 2 5 9 4 10 9 16 14 15 16 17 27 19 14 12 12 18 25 18 17 6 20 31 20 18 16 16 14 16 15 20 22 22 18 17 19 19 19 18 18 17 15 14 12 11 11 12 12 15 19 15 14 14 14 14 13 12 12 12 13 13 13 14 14 14 14 14 14 14 13 14 13 12 12 13 13 13 13 12 12 12 12 11 10 10 9 8 7 6 4 4 5 6 7 8
11 11 7 9 4 6 8 11 9 10 20 20 12 13 11 15 7 14 27 18 8 13 16 23 21 30 25 24 15 14 16 18 23 22 18 16 18 20 19 16 17 16 15 15 14 12 10 9 11 11 13 11 11 14 14 14 13 12 11 11 11 11 12 12 13 13 14 14 13 13 13 14 14 14 14 14 14 13 13 13 12 12 11 11 9 10 10 8 8 6 4 3 4 5 6 7 7
12 6 5 7 10 5 6 12 4 5 20 17 15 6 6 7 11 18 27 23 16 14 19 19 35 27 24 26 16 20 21 23 22 19 20 19 20 18 16 15 15 13 14 13 13 13 11 11 10 10 10 10 10 9 8 13 14 14 13 12 11 10 10 12 15 14 14 13 12 11 11 12 12 13 13 13 13 13 14 12 12 12 11 10 9 8 8 9 7 6 3 3 4 6 6 7 7
15 7 7 6 11 5 13 6 6 8 23 11 12 4 15 10 15 22 16 29 23 13 9 16 7 13 24 17 27 26 28 25 22 21 20 19 17 17 17 14 13 11 12 12 11 11 12 12 10 11 10 10 9 8 9 8 14 16 15 14 12 11 12 13 15 14 14 12 12 11 12 8 9 8 12 10 12 12 12 9 12 12 11 10 8 8 9 8 7 6 5 3 4 5 6 6 8
5 7 7 10 16 5 10 8 2 15 15 11 6 2 22 22 19 24 16 23 28 12 16 11 18 23 22 30 31 32 30 27 23 19 20 18 17 16 15 12 11 10 9 9 10 11 10 11 9 10 9 10 10 9 8 8 11 15 13 14 13 12 12 14 14 14 12 11 10 9 6 3 3 3 4 2 9 6 6 10 12 12 11 10 9 7 8 7 7 6 5 4 4 5 6 7 8
5 11 13 12 10 9 10 11 10 14 15 11 2 8 24 18 20 22 29 26 24 24 25 26 27 24 29 32 32 33 30 28 23 20 17 18 15 15 16 11 9 12 11 10 8 9 10 7 8 7 8 9 9 9 7 6 7 10 6 6 6 8 9 11 9 6 9 3 9 6 5 4 4 4 4 5 1 3 5 9 10 11 10 9 8 7 7 7 6 6 5 5 5 5 8 4 6
10 8 11 16 9 17 4 8 13 15 14 8 6 3 20 21 19 11 30 21 27 28 23 27 29 27 28 32 32 30 27 24 21 21 18 17 16 17 17 14 10 11 12 11 10 9 8 8 8 8 8 9 9 7 7 7 7 6 6 5 5 6 7 7 3 4 2 4 4 6 5 5 3 3 4 4 3 4 3 8 8 10 10 9 8 7 7 6 6 6 6 6 5 6 4 6 5
10 10 11 15 7 10 10 11 18 12 12 12 6 5 12 14 22 16 28 21 31 32 30 23 32 27 26 29 27 24 22 19 20 18 17 17 15 15 15 15 13 10 10 11 11 9 9 9 9 8 9 8 8 7 7 7 7 6 6 5 4 4 3 5 4 4 2 3 5 5 5 5 3 3 8 8 5 2 2 6 6 7 7 7 8 6 6 5 7 6 6 6 5 5 3 4 5
8 11 15 9 6 6 13 11 16 17 4 10 6 3 17 6 17 27 23 23 17 19 27 34 29 29 27 23 21 21 22 19 18 16 14 14 12 10 11 11 11 10 9 9 9 9 9 9 8 9 9 9 8 8 7 7 7 8 7 5 4 3 3 4 4 4 3 4 6 5 4 3 3 2 3 4 4 2 1 2 2 1 2 2 5 5 3 2 3 3 3 4 3 4 6 5 4
7 9 7 8 8 11 21 15 19 18 5 10 8 10 4 11 23 26 26 29 20 22 19 29 30 27 25 22 20 22 21 20 18 17 14 12 15 13 11 11 9 8 11 12 9 10 8 8 9 8 8 8 7 8 8 7 9 8 7 6 5 2 3 3 3 2 3 3 5 5 4 4 2 1 2 3 1 3 3 3 4 3 2 2 2 4 2 3 4 5 5 6 6 6 7 7 4
18 10 5 8 10 14 12 11 17 13 7 7 8 8 3 8 13 12 22 25 20 23 26 28 27 24 23 24 25 23 22 20 18 16 15 14 13 12 14 13 14 14 10 12 11 9 8 7 6 7 8 7 7 5 5 6 8 8 7 6 7 2 2 3 3 2 3 3 5 5 6 4 4 4 3 4 5 4 7 6 5 6 4 2 1 2 3 4 6 7 6 8 8 8 9 9 8
16 21 4 9 11 13 13 19 15 8 8 6 6 8 5 10 17 16 25 24 28 26 29 28 27 26 24 26 24 23 22 20 16 14 13 14 14 13 15 15 11 10 11 11 12 10 8 7 6 7 8 7 5 4 5 7 7 8 7 7 5 5 5 6 5 5 5 6 6 7 7 7 8 8 5 5 5 3 5 5 5 4 5 5 3 2 3 4 5 6 6 6 7 9 11 10 10
10 18 9 8 7 8 8 14 7 10 7 6 11 12 9 7 20 24 29 28 29 29 29 29 27 25 25 27 25 23 22 19 17 13 11 11 11 12 11 12 11 12 14 12 12 11 9 9 6 8 7 6 6 6 6 6 7 7 6 6 4 7 5 7 7 5 6 6 6 7 7 8 7 5 6 7 5 5 3 5 3 4 2 2 5 3 3 3 3 5 6 7 8 9 8 7 6
10 14 8 8 8 5 7 9 4 8 13 7 7 9 12 23 34 30 29 30 31 30 29 28 25 24 23 24 23 21 21 19 16 16 15 13 12 12 11 13 13 12 12 12 13 11 10 9 7 7 7 8 7 5 7 6 6 7 7 7 6 8 8 8 4 5 5 6 6 7 7 5 7 6 6 5 6 6 4 4 3 3 5 4 3 4 5 4 2 2 2 5 9 9 8 4 4
5 9 12 12 13 3 4 8 7 7 5 6 4 6 6 7 28 16 23 30 31 31 30 23 24 26 25 22 21 19 21 18 18 15 15 13 13 13 11 10 11 12 13 13 12 12 12 10 8 6 6 8 6 6 6 6 3 4 6 7 7 7 7 6 5 5 5 6 7 6 5 5 5 4 4 4 4 6 6 6 6 3 5 6 4 4 4 4 4 2 2 4 7 5 5 4 6
7 12 9 11 13 4 4 7 8 3 7 5 6 8 5 8 26 31 27 27 31 31 26 25 27 28 28 24 22 17 16 14 13 13 16 13 14 14 12 12 10 11 12 12 11 10 12 11 11 8 7 6 6 6 5 4 2 2 5 6 6 7 8 9 9 7 8 6 5 4 4 3 4 4 5 5 6 7 6 6 6 5 7 5 4 4 4 4 3 2 2 2 4 4 6 6 4
7 8 10 10 6 11 4 9 6 6 5 5 5 5 9 7 24 34 31 30 32 34 28 26 26 26 24 23 21 17 15 11 8 10 7 7 7 10 12 9 12 11 6 10 10 10 10 10 11 7 6 4 3 5 3 2 2 4 6 7 6 7 8 8 8 8 6 5 3 4 3 4 4 6 7 7 8 7 6 5 5 6 6 3 3 3 3 3 2 1 3 3 4 3 5 7 5
8 5 10 7 7 7 8 6 3 4 5 6 9 10 9 9 26 23 28 34 30 30 27 26 26 24 22 20 20 17 13 12 10 8 7 7 7 8 11 8 8 10 11 9 10 11 9 9 8 7 6 6 3 4 3 2 5 6 6 6 5 4 6 5 6 5 4 6 6 5 5 5 6 7 7 7 7 7 6 6 6 6 4 2 2 3 5 3 3 3 5 3 7 7 7 7 6
12 10 12 10 3 9 5 11 6 9 6 8 9 10 9 8 15 20 26 33 35 29 25 25 25 23 21 19 18 18 14 12 10 8 8 8 7 7 9 6 8 8 9 7 10 11 10 8 8 6 5 4 4 3 2 1 4 6 5 6 7 4 4 3 3 2 3 5 6 5 5 6 7 7 8 8 8 7 7 6 7 7 3 3 3 4 4 3 3 4 4 6 4 7 8 8 5
8 6 7 5 9 9 9 8 8 14 8 10 10 6 12 8 24 23 21 30 30 30 25 22 22 20 19 18 19 19 14 11 11 11 12 12 9 11 9 8 8 9 9 7 9 9 10 8 6 6 4 4 2 3 2 1 2 1 2 7 5 2 3 3 2 3 4 4 5 7 7 6 6 7 7 6 6 6 6 6 6 3 3 2 3 3 3 5 3 4 4 5 5 8 8 10 6
8 10 5 8 6 9 7 5 9 12 10 5 14 12 5 9 27 31 31 29 28 32 26 21 21 20 20 21 18 17 17 14 13 14 14 12 9 10 11 11 8 8 7 8 8 7 8 5 7 6 4 1 2 2 1 1 3 1 1 3 4 3 6 6 6 5 5 6 7 6 4 6 5 6 6 5 5 6 6 7 6 6 4 4 3 3 4 4 2 4 4 5 6 9 7 9 10
12 5 11 8 10 6 10 11 8 7 8 4 6 9 4 17 25 35 29 32 29 30 27 22 22 21 20 19 17 18 15 16 15 15 15 14 13 13 11 12 13 10 8 8 6 6 7 6 6 6 5 2 1 2 2 3 6 2 1 4 5 5 5 4 4 2 7 7 6 6 2 2 3 4 5 5 6 7 7 7 6 6 5 4 4 4 5 2 3 3 5 5 8 8 8 8 9
11 7 8 6 3 7 11 11 10 7 6 7 7 25 25 29 23 23 29 30 30 26 25 22 22 23 23 19 18 15 15 17 15 13 16 14 13 11 12 13 13 12 11 11 10 8 7 6 7 6 6 3 1 1 2 5 8 7 4 5 6 3 4 7 5 4 7 4 4 3 2 2 3 3 5 6 8 8 7 7 7 4 3 4 4 4 3 3 4 5 8 9 7 10 11 8 9
9 9 14 7 9 11 10 13 7 12 8 8 13 21 23 16 16 13 12 21 30 23 22 22 22 21 18 17 18 16 16 16 15 17 16 15 14 15 15 15 15 13 12 12 12 10 8 7 6 4 5 4 3 5 6 6 5 2 1 3 6 5 6 8 10 9 5 6 5 2 1 2 3 4 7 8 8 7 7 8 7 4 2 3 4 4 7 9 11 9 10 9 10 9 10 10 8
8 7 9 15 14 11 6 9 9 12 11 12 21 23 25 17 13 12 18 21 25 25 24 24 18 18 18 18 17 17 17 15 14 17 16 16 15 15 14 11 15 15 13 14 15 13 9 6 6 7 5 3 3 6 5 3 3 6 3 5 4 2 5 8 8 7 8 7 6 5 3 3 3 4 4 4 7 7 7 6 6 5 4 4 4 9 12 12 12 11 9 9 10 11 12 11 10
13 7 6 13 14 15 12 13 14 13 15 12 25 24 21 21 15 14 16 25 23 24 27 22 20 18 19 18 17 16 13 10 17 19 15 16 15 14 14 14 16 16 12 14 14 11 10 12 12 10 8 9 8 6 4 4 2 3 4 8 4 3 5 7 8 3 6 6 4 2 4 6 5 4 5 6 7 8 9 8 7 8 7 6 7 12 11 10 9 8 9 11 11 14 15 10 10
13 11 6 4 11 12 6 11 14 14 30 16 28 28 20 19 16 12 11 20 19 15 18 19 20 18 17 16 16 14 12 13 17 14 14 13 13 14 14 13 13 10 11 13 10 13 14 14 13 11 12 13 13 12 10 8 4 6 5 7 6 8 3 6 9 11 9 6 3 4 4 4 4 7 7 8 8 8 9 9 10 9 8 9 13 15 11 11 9 10 11 13 12 9 11 6 7
12 8 8 20 8 6 9 15 13 12 24 22 30 29 19 17 16 16 13 17 22 19 19 18 16 21 18 15 14 12 12 16 17 15 13 12 13 13 14 15 12 12 14 13 14 13 13 13 11 12 14 13 14 13 12 10 9 9 7 5 5 4 6 9 9 9 12 10 12 9 7 5 6 8 7 8 7 7 7 9 8 3 9 11 13 15 14 11 10 11 13 12 11 13 11 9 10
10 12 14 16 7 9 11 13 18 25 22 29 31 28 15 8 15 16 13 16 21 19 19 18 17 16 15 15 15 12 14 13 16 12 11 12 16 13 14 13 12 14 14 14 13 13 11 13 12 11 12 11 10 12 12 10 9 9 9 8 6 7 8 12 14 15 17 16 15 14 15 8 7 9 6 6 6 8 8 9 7 4 8 9 9 14 14 13 11 10 10 11 12 15 15 15 9
13 10 19 18 11 8 4 10 18 20 16 20 36 19 10 8 10 14 15 16 17 14 17 15 14 13 14 17 15 12 14 12 13 11 12 11 13 13 15 12 13 12 13 11 10 12 11 11 12 11 11 11 11 11 10 10 11 10 12 12 11 8 9 10 10 10 12 13 12 13 15 16 14 11 7 5 6 7 8 5 3 6 5 6 9 11 10 9 10 11 14 12 12 12 14 11 14
10 20 15 17 12 7 7 15 18 23 30 27 13 29 19 12 12 13 15 16 15 13 15 14 13 12 13 15 14 13 13 12 11 11 11 11 11 16 14 11 10 11 11 11 11 12 10 9 9 11 10 10 9 9 9 9 10 11 11 9 7 9 8 9 9 9 10 11 10 13 16 18 17 15 18 14 11 10 7 4 4 6 8 9 11 12 11 13 14 14 12 11 14 12 10 15 16
24 9 10 12 9 9 15 13 22 24 10 21 6 18 29 20 20 15 14 17 15 15 14 12 11 12 12 13 12 11 12 9 11 11 12 11 12 14 14 11 11 11 11 12 11 10 12 14 12 11 10 11 12 10 10 10 9 8 8 8 8 9 9 8 8 10 8 8 9 7 6 11 17 16 15 16 15 14 11 10 9 6 10 13 11 11 12 13 12 11 11 13 13 13 13 15 17
21 6 9 8 10 12 15 15 12 12 23 17 6 13 22 13 17 16 17 17 12 14 16 14 14 13 14 14 12 12 11 10 10 12 12 12 12 13 12 13 10 11 11 11 9 10 11 11 10 9 12 12 12 12 11 12 11 9 9 8 9 8 7 7 7 7 10 10 10 11 12 10 4 13 16 15 16 17 13 15 15 12 12 11 7 9 12 13 13 13 12 12 12 13 13 12 15
16 8 7 6 6 8 12 12 15 9 19 25 16 18 24 11 17 21 13 15 19 17 17 17 16 17 16 16 12 11 11 10 11 11 12 12 11 13 13 13 12 12 10 9 9 8 9 8 9 10 11 9 10 11 12 12 12 12 13 13 12 11 10 9 7 10 12 11 11 11 11 10 12 11 7 8 10 9 8 7 12 11 11 10 10 11 11 12 11 11 11 11 14 16 13 16 18
5 10 16 13 5 3 3 7 17 18 19 24 19 17 19 21 25 30 32 29 29 21 15 17 18 17 16 14 14 12 11 11 11 11 11 12 11 14 15 14 11 10 8 9 10 8 7 8 9 9 7 7 7 9 12 13 13 14 13 12 11 12 12 11 13 14 15 13 14 12 13 12 12 13 11 11 10 11 11 9 6 8 9 10 10 11 12 12 11 11 11 10 13 17 17 16 18
11 18 13 7 10 3 5 5 15 22 23 13 17 15 15 22 18 22 14 11 28 31 25 24 23 21 19 15 15 13 11 11 11 13 14 13 11 12 13 13 10 8 8 9 6 7 8 8 6 5 4 5 7 8 9 11 12 12 11 11 12 11 11 13 13 12 11 10 11 13 12 12 13 12 12 13 14 15 14 12 9 9 7 7 9 8 8 10 11 11 11 12 14 15 16 17 17
15 12 5 12 10 14 16 11 15 16 25 10 11 11 10 8 5 9 5 16 16 10 22 25 24 23 18 16 15 13 12 12 11 11 11 10 10 10 12 11 9 10 9 5 3 4 6 5 3 4 5 5 6 7 8 9 10 11 12 13 12 12 12 10 9 9 9 10 10 11 12 13 13 14 16 16 15 16 16 14 12 11 10 9 9 6 8 11 11 11 12 12 13 15 17 17 18
11 19 14 12 16 14 14 9 10 8 9 6 22 5 13 6 6 12 9 9 16 17 16 18 17 18 17 17 16 14 13 11 10 10 11 9 9 9 10 10 10 10 5 3 4 6 4 4 3 5 6 5 5 6 8 9 10 10 9 11 10 10 10 9 9 11 11 11 11 11 12 12 11 10 13 14 14 15 14 13 12 12 11 11 10 9 10 10 10 12 12 14 15 17 16 16 19
18 9 17 16 17 23 16 13 20 16 13 8 11 25 18 10 7 10 14 15 16 17 17 14 14 13 13 13 13 14 13 11 10 11 11 11 10 9 9 9 10 7 2 2 5 7 7 4 4 5 7 6 5 6 6 7 8 9 9 11 12 12 12 13 12 11 11 12 11 12 12 11 10 9 11 12 14 14 15 15 16 17 17 16 14 13 12 11 10 12 13 15 16 15 15 16 16
13 13 12 11 20 16 6 16 14 11 15 13 13 13 8 10 10 16 16 17 17 17 17 16 15 14 14 15 14 13 11 10 9 10 11 9 8 9 10 9 10 6 3 3 5 5 5 4 4 6 7 5 5 6 5 6 5 6 7 10 12 12 12 11 10 11 12 12 12 12 12 10 11 11 11 13 15 17 20 21 21 21 21 19 18 16 15 15 13 14 15 14 16 14 15 17 18
16 13 25 18 11 13 8 4 2 13 17 10 10 12 14 13 11 17 19 20 18 17 18 17 17 15 14 14 14 13 11 9 7 9 9 8 7 8 10 9 7 5 5 6 6 6 6 5 7 9 9 7 6 5 5 5 5 5 5 6 8 8 10 12 13 13 13 14 16 17 16 15 13 14 15 15 16 19 21 23 23 23 25 23 22 23 22 19 17 15 15 16 17 15 16 17 17
16 30 13 6 8 12 16 12 7 9 18 14 8 12 18 17 18 16 20 22 19 19 18 16 14 15 14 14 14 13 13 10 8 8 8 8 8 9 10 10 8 7 6 8 7 4 4 5 8 11 11 11 6 6 5 5 5 5 5 7 8 10 11 12 13 15 16 18 19 18 17 19 20 20 20 19 20 20 20 23 24 25 25 25 24 24 25 24 23 19 15 16 17 17 17 16 15
16 15 10 18 12 15 9 16 11 9 12 13 8 16 16 13 15 21 23 25 23 21 18 17 17 16 16 15 16 14 10 9 9 8 10 12 13 12 12 11 9 9 9 9 9 7 7 7 8 10 11 10 9 9 6 7 6 6 7 8 8 11 11 12 14 15 16 18 19 19 18 17 17 19 21 20 19 18 18 21 26 22 21 19 21 24 25 25 24 22 22 19 16 15 15 15 15
3 5 6 5 13 9 13 23 14 20 12 13 10 16 15 17 20 22 24 25 26 23 18 17 17 16 16 15 14 13 12 10 8 9 12 12 11 11 11 11 11 10 9 9 9 10 9 8 10 11 12 12 13 13 12 11 9 9 11 10 9 10 11 13 14 15 17 17 17 18 19 19 19 18 16 16 17 17 17 20 21 21 21 19 21 21 21 21 23 24 24 24 24 21 16 16 15
9 9 9 8 12 8 13 9 15 18 21 14 19 18 15 8 20 24 24 25 26 24 23 20 18 16 15 13 14 13 13 11 10 11 11 11 10 9 9 8 9 8 8 9 10 9 7 9 11 11 12 13 14 13 13 13 14 14 12 11 11 11 13 14 14 14 14 15 15 17 17 16 16 20 18 19 20 20 19 17 20 21 20 20 20 22 21 21 19 20 24 24 25 25 22 15 14
13 16 13 11 7 9 11 17 6 12 22 25 21 18 9 4 6 20 24 22 22 20 23 21 19 17 16 15 13 12 14 12 10 9 9 10 8 8 9 11 9 9 9 11 10 10 9 9 10 12 13 12 12 13 13 14 14 16 15 14 11 10 12 13 13 12 12 13 15 16 16 17 18 19 19 19 20 17 19 15 18 22 21 21 21 21 22 21 22 23 23 21 24 26 25 22 13
Wind_Speed
4 5 4 4 1 1 2 1 0 2 2 4 3 2 6 1 4 3 4 3 1 1 1 6 6 3 4 7 14 12 12 4 1 7 3 4 7 10 16 18 14 12 12 9 9 9 10 14 16 17 17 17 16 16 16 17 16 15 15 14 14 14 14 14 14 13 13 14 15 15 15 15 14 15 14 13 13 13 13 14 14 14 14 14 15 15 15 15 14 13 13 12 11 10 11 12 12
2 4 4 3 1 1 0 1 2 1 2 1 8 0 7 5 4 10 5 2 1 3 6 14 16 19 20 17 9 13 16 10 8 7 9 11 11 9 14 17 13 14 10 10 9 9 9 11 16 16 17 17 16 17 17 17 16 15 15 14 14 13 13 14 14 14 14 14 15 15 15 15 15 15 15 15 14 14 13 14 15 15 15 15 14 15 14 13 13 13 12 11 11 10 10 10 11
3 5 5 4 2 2 1 1 1 2 4 5 8 5 3 8 6 10 5 11 10 9 10 11 11 6 5 1 11 5 4 8 15 13 10 13 12 6 12 13 11 12 12 9 10 10 8 11 16 16 17 17 16 17 16 16 16 15 15 14 13 13 13 14 14 13 13 14 14 14 15 15 15 16 15 15 14 14 14 13 14 14 15 14 13 13 14 13 13 12 11 11 9 8 8 9 10
2 2 3 2 1 2 1 2 2 6 5 7 6 5 4 6 7 3 12 11 9 6 3 3 4 5 8 16 11 15 10 7 8 13 9 5 7 11 10 12 10 9 8 9 8 9 8 13 16 16 17 17 16 17 16 16 16 15 15 14 13 13 14 14 13 12 12 13 14 15 15 16 16 16 15 15 13 13 13 13 13 13 13 13 13 13 13 13 13 12 11 10 8 8 8 9 9
3 2 0 3 2 1 1 2 3 4 5 5 5 5 4 4 6 3 5 4 5 6 6 6 7 5 9 8 1 2 7 11 10 7 8 8 11 12 12 11 10 10 9 8 8 9 10 17 15 15 16 17 16 16 15 16 16 15 14 13 13 14 14 14 14 13 12 13 14 14 15 15 15 15 15 14 14 14 13 13 13 13 12 12 12 12 12 12 12 11 10 9 8 8 8 9 10
1 2 1 2 0 1 2 1 3 5 8 3 2 3 4 6 3 3 9 6 2 4 9 8 7 2 6 6 3 5 6 5 8 8 12 10 14 14 14 11 10 10 9 8 7 7 9 16 16 15 15 16 16 15 15 15 16 15 14 14 13 13 13 14 14 13 12 12 12 13 14 15 15 15 14 14 14 14 13 12 12 11 11 11 11 11 12 11 11 10 9 8 7 8 7 7 8
2 3 1 1 2 1 4 2 6 6 11 4 4 3 6 11 8 1 12 11 5 10 11 13 17 13 11 3 9 7 9 13 8 9 11 15 15 14 13 11 11 11 10 8 7 8 12 15 16 15 15 16 15 15 15 15 15 14 14 14 13 12 13 12 13 12 11 11 10 13 15 15 15 15 14 13 13 13 12 12 12 12 11 10 10 11 11 11 10 9 8 6 7 7 6 6 6
0 2 1 1 1 1 2 4 7 5 5 6 2 6 9 12 13 4 4 12 5 7 5 9 9 17 8 5 7 8 13 12 16 15 18 16 14 13 13 12 12 11 10 8 8 8 15 15 15 15 15 15 16 15 15 15 14 14 14 13 13 12 11 12 12 12 11 12 12 13 14 14 14 15 14 13 12 13 12 12 12 12 11 11 11 11 10 10 9 8 7 5 6 6 6 6 6
1 1 1 3 1 0 1 6 7 3 6 5 6 6 13 15 7 4 5 5 7 8 10 10 13 15 3 13 10 10 12 17 18 18 16 16 15 14 10 12 13 11 10 8 7 7 9 14 14 15 15 14 15 15 15 14 13 13 13 13 13 12 10 11 12 11 11 11 10 12 14 14 14 14 13 12 12 12 12 11 12 11 11 11 11 11 10 9 8 7 6 5 6 6 6 7 8
0 1 1 2 2 3 3 7 2 4 3 3 5 9 12 12 5 4 10 9 12 10 5 3 14 17 13 16 10 8 10 16 16 16 15 15 14 12 12 12 11 11 9 8 7 7 6 14 13 12 12 13 14 14 14 13 13 12 12 12 11 10 10 10 12 12 12 12 12 12 12 13 13 12 11 11 11 12 12 11 11 12 11 11 11 10 9 8 8 7 5 5 5 5 6 7 8
1 1 1 1 1 4 7 5 5 8 9 5 7 12 15 14 12 4 6 10 6 14 13 21 16 15 14 8 5 2 12 13 12 13 15 14 12 11 9 9 10 10 10 9 8 6 6 7 15 12 12 12 12 12 11 11 11 10 10 10 10 10 10 12 12 12 12 12 12 13 13 13 13 12 11 10 11 11 11 11 11 11 11 10 10 9 8 8 7 6 4 4 4 5 6 6 7
1 0 1 1 4 5 4 3 5 8 8 5 7 11 9 14 9 5 14 13 9 13 9 5 6 16 14 9 5 4 10 11 13 13 14 13 10 12 12 9 10 11 11 10 7 6 6 6 7 13 13 12 12 12 11 10 10 10 9 9 10 10 10 12 12 12 12 12 11 12 12 12 11 11 11 10 10 10 11 10 10 10 11 10 9 8 8 8 6 5 3 3 3 4 5 6 6
2 0 0 1 3 2 4 3 7 6 5 8 9 9 12 10 9 10 12 16 10 10 2 12 20 11 7 7 5 9 10 11 12 11 11 9 11 10 11 11 10 11 10 10 9 7 7 6 6 6 10 15 12 11 11 11 10 10 9 9 10 10 11 11 11 11 11 11 11 11 11 11 11 11 10 10 10 10 10 10 10 9 10 10 9 8 7 7 6 3 2 2 2 4 4 5 5
3 5 3 3 0 2 4 5 4 5 8 11 4 9 4 6 3 10 15 11 2 3 9 15 10 18 14 10 7 7 9 11 11 9 9 11 11 12 12 10 10 10 10 9 9 8 6 5 6 6 6 6 6 9 11 11 10 10 9 9 9 9 10 10 10 11 11 11 11 11 11 11 11 11 11 11 11 11 10 10 10 9 9 9 7 8 7 6 5 4 1 1 2 4 4 5 5
4 1 1 2 3 2 2 3 2 2 10 10 6 2 2 5 8 12 16 15 10 9 7 8 14 15 8 14 6 8 11 10 12 11 12 12 13 11 10 8 8 9 9 8 8 8 7 7 6 6 5 5 5 5 4 8 11 11 9 9 9 9 8 9 11 11 11 11 10 9 9 9 9 10 10 9 10 10 11 10 10 9 9 8 7 6 6 6 5 4 1 1 2 4 4 5 5
5 2 1 1 3 2 4 2 4 4 9 7 8 2 9 6 5 13 8 16 8 8 6 5 3 3 14 8 16 16 15 14 12 12 12 13 11 10 9 8 8 7 6 7 7 6 6 6 6 6 5 5 4 4 5 5 10 12 11 10 9 8 10 10 11 10 10 9 9 8 8 5 5 5 8 5 8 9 10 6 9 9 9 8 6 6 7 6 5 4 3 1 2 4 4 4 5
1 2 2 2 7 1 4 3 1 4 6 6 5 0 10 6 8 11 6 13 16 7 9 5 8 12 14 15 20 19 14 12 12 12 14 11 9 8 7 7 6 6 5 5 5 6 5 6 5 5 5 6 5 4 4 4 7 11 9 9 9 8 10 11 10 10 9 8 7 6 4 1 1 0 1 0 4 1 3 8 9 9 8 8 7 6 6 5 5 4 3 2 2 4 5 5 5
1 2 4 5 4 4 4 5 4 3 6 7 1 6 16 10 7 8 16 16 16 15 15 14 17 15 18 19 20 18 14 15 12 12 11 10 8 8 8 6 5 7 6 5 5 5 5 4 5 5 5 5 5 4 3 3 4 6 3 3 3 5 6 9 6 4 6 2 7 4 3 2 2 2 2 1 0 1 1 5 7 8 7 7 6 6 5 5 5 4 4 3 3 3 5 3 3
3 1 3 7 4 6 1 3 6 5 8 6 2 1 14 12 13 2 13 13 17 17 13 18 18 17 19 21 20 17 15 13 11 12 12 12 9 11 10 7 6 7 7 6 5 4 3 4 4 5 4 5 5 3 3 4 4 3 3 3 3 4 4 3 2 2 2 3 3 3 3 3 2 1 1 2 1 1 1 5 5 7 6 6 6 5 5 5 4 4 4 3 3 4 3 4 3
4 4 4 7 3 5 7 6 10 7 9 9 5 3 9 8 9 7 14 13 21 20 14 14 19 18 18 19 18 15 14 11 10 11 12 11 10 9 9 9 7 5 6 6 6 4 4 5 5 5 6 5 5 4 4 4 4 4 4 4 3 3 2 1 1 2 2 2 3 3 3 3 2 2 4 4 2 1 1 4 4 5 5 4 5 3 5 4 5 4 3 4 2 2 2 3 3
2 4 5 3 3 2 8 6 7 10 3 5 4 0 11 3 7 12 15 14 10 11 18 22 19 19 18 16 14 13 14 11 9 10 10 10 8 6 6 6 6 5 5 5 5 5 4 5 5 5 5 5 4 5 4 4 4 4 4 3 3 2 2 1 1 3 2 3 4 3 3 2 2 0 1 2 2 1 1 0 1 1 1 1 2 1 1 1 2 1 1 2 2 3 4 4 2
2 4 5 5 5 4 13 9 12 11 3 4 4 7 2 7 11 16 17 17 10 11 11 20 20 18 16 15 13 14 14 12 10 9 10 9 10 9 7 6 6 5 6 5 5 5 4 4 5 5 4 4 4 4 4 4 4 4 4 4 3 2 2 1 1 2 2 2 4 4 3 2 2 1 1 1 1 2 2 2 2 2 1 1 0 1 1 1 2 2 2 2 4 4 4 4 3
4 4 3 5 6 7 5 6 10 8 2 3 5 4 1 5 6 5 13 16 11 13 18 19 17 15 15 14 15 15 14 12 10 10 9 9 9 9 9 7 8 8 5 5 6 5 4 3 4 4 5 4 3 3 3 3 4 3 3 4 4 2 1 2 1 2 2 2 3 3 4 2 2 3 2 2 2 2 4 3 3 2 2 1 1 2 1 1 2 3 2 3 3 3 4 5 5
5 8 2 6 7 7 8 12 12 6 3 3 3 3 3 7 10 6 16 15 19 16 18 18 17 16 13 16 15 15 14 12 10 8 8 9 9 9 10 9 6 6 7 6 5 5 4 4 4 5 5 4 3 3 3 4 3 4 3 3 3 4 3 4 2 2 2 4 3 4 4 4 4 3 3 2 3 2 3 3 2 2 3 2 1 1 1 1 1 1 2 3 3 3 5 5 5
5 8 6 5 4 4 6 9 6 6 4 1 5 7 6 2 10 15 18 19 19 18 18 19 18 16 17 17 16 14 13 11 10 8 6 6 7 8 7 7 7 7 8 7 6 6 5 5 4 5 4 3 3 3 4 4 3 3 3 4 3 4 3 4 3 2 2 2 3 4 5 4 3 3 3 4 2 2 2 3 2 4 1 2 2 1 1 1 1 1 3 4 3 4 4 4 4
5 9 5 5 5 4 5 7 3 6 3 4 4 5 8 17 19 17 19 19 19 19 18 18 17 16 16 16 15 14 13 12 11 10 9 7 7 9 8 8 7 7 7 7 7 6 4 4 4 5 4 5 4 3 4 3 4 4 3 3 4 4 4 3 2 3 2 3 3 4 3 3 4 4 3 2 2 3 2 3 3 2 4 3 2 3 3 2 1 0 1 1 3 5 5 3 3
2 4 6 8 9 1 3 5 5 4 2 4 1 4 4 2 14 5 13 19 19 20 18 14 16 18 17 14 13 12 13 12 10 8 8 6 5 6 7 7 7 7 8 8 7 6 5 4 4 4 4 4 3 4 2 1 1 3 4 4 4 4 3 3 2 2 3 4 3 3 2 2 2 2 2 3 2 3 4 3 4 2 3 4 2 2 3 2 2 1 1 2 2 3 2 2 3
4 5 6 8 9 1 2 4 6 0 1 2 2 3 4 6 13 15 15 17 20 20 16 15 16 18 16 15 12 9 9 6 6 7 10 8 6 6 7 7 7 7 8 7 6 6 6 6 5 4 4 4 3 2 0 0 1 2 3 3 3 3 2 2 2 2 4 3 2 2 2 2 2 2 3 3 3 4 4 4 3 3 4 2 1 1 1 0 1 1 1 1 1 1 3 3 3
5 5 5 7 2 1 3 5 4 2 2 3 1 3 4 3 14 22 20 18 20 23 19 17 18 16 15 13 11 9 8 6 5 6 4 4 4 4 6 5 7 6 3 6 6 6 7 7 6 4 3 3 2 2 1 0 1 3 3 3 3 3 4 3 3 3 3 2 2 3 2 3 3 4 4 4 4 4 3 3 3 4 3 2 1 0 0 0 0 1 2 2 2 1 2 4 3
5 2 4 4 3 3 4 4 0 3 2 4 4 2 3 1 15 16 18 19 20 20 17 16 15 14 12 11 10 10 8 7 6 4 4 4 3 3 4 3 4 5 5 4 5 5 5 5 4 4 3 3 3 3 2 1 3 3 2 2 1 2 3 3 4 3 3 4 4 3 3 3 3 3 4 4 3 4 3 4 5 4 3 1 1 1 1 1 1 1 3 2 4 4 5 4 3
3 5 2 3 1 2 2 4 5 5 1 6 4 3 3 1 10 13 16 22 24 19 16 15 15 13 11 10 10 10 9 7 6 5 5 5 5 4 5 4 5 5 5 4 6 6 5 4 4 3 3 3 3 3 1 1 3 3 2 2 1 1 1 1 1 1 2 4 2 2 3 3 3 4 4 4 4 4 4 4 4 4 1 0 1 1 1 1 1 3 2 3 3 5 5 5 3
1 2 2 1 5 3 4 3 5 7 1 6 6 2 5 5 10 7 9 16 21 18 15 14 13 11 11 10 11 10 8 7 7 8 8 8 6 5 5 5 4 5 5 5 5 5 4 3 4 4 3 2 2 2 1 1 1 1 1 3 1 1 2 2 2 2 2 2 3 4 3 4 4 4 4 3 3 3 4 4 4 2 1 1 1 1 1 1 1 1 2 2 3 5 5 6 3
2 5 3 2 3 4 3 3 5 9 2 2 7 4 1 7 18 19 15 16 19 20 17 14 14 12 12 11 10 9 10 8 8 9 9 7 6 5 5 6 4 4 3 4 4 5 4 3 4 4 2 1 0 1 0 1 0 0 1 1 1 1 2 2 2 2 4 4 4 4 3 3 3 3 3 2 3 3 4 4 4 2 1 1 2 2 2 1 1 2 2 3 4 5 4 6 6
4 0 4 3 6 1 2 6 3 4 5 1 2 3 3 12 16 17 16 20 20 19 16 13 12 10 12 11 10 9 9 9 9 9 10 7 5 7 7 7 7 5 4 4 4 3 4 3 4 3 2 1 1 1 1 1 1 1 0 2 3 3 1 0 1 1 4 4 4 4 2 1 1 2 2 2 3 4 3 3 3 2 1 1 1 1 3 1 1 2 4 4 5 5 5 5 5
5 2 2 1 0 4 6 3 3 4 3 4 6 15 13 19 11 9 14 17 19 16 13 13 13 14 13 11 10 9 8 10 8 8 10 8 5 7 8 8 8 7 6 6 5 4 4 4 4 3 3 1 0 0 2 3 3 0 1 2 1 2 3 2 1 2 4 3 3 2 1 1 1 2 3 3 4 4 3 3 3 2 1 1 1 1 2 2 3 4 5 5 5 6 6 6 6
5 5 5 3 4 3 3 6 2 8 3 5 9 11 11 8 7 8 7 11 18 14 14 12 13 12 11 9 10 8 8 8 7 10 11 8 8 9 9 8 8 7 7 7 6 4 4 4 3 2 3 2 2 3 3 3 1 0 0 2 3 2 3 4 2 1 2 3 2 1 1 2 2 3 3 3 4 4 3 2 3 2 1 1 1 3 5 5 6 6 6 6 6 5 5 5 4
3 2 3 7 7 4 3 3 5 5 5 7 13 12 14 11 8 7 10 11 14 15 15 13 10 10 11 10 10 10 9 7 7 11 11 11 10 9 9 6 9 10 8 7 7 6 5 4 4 5 3 2 2 2 2 1 0 1 1 1 2 1 3 5 4 3 2 2 1 1 1 2 2 3 2 2 3 3 2 2 2 3 2 1 2 6 8 7 6 5 4 4 5 5 5 4 4
4 3 2 6 6 8 6 5 5 3 7 1 13 15 12 13 10 8 7 13 13 16 17 14 13 11 11 12 11 10 6 4 11 11 10 10 9 10 8 7 10 10 7 8 8 7 7 8 8 6 5 5 5 3 2 1 1 2 2 1 1 1 3 4 5 2 2 2 1 2 3 3 2 2 2 3 3 3 3 4 4 4 2 1 4 8 6 3 3 3 4 5 4 5 4 2 3
5 4 4 2 5 3 4 4 3 5 17 5 15 17 10 11 10 7 5 6 8 7 9 11 12 12 10 9 10 9 5 8 11 8 9 8 9 9 8 7 7 6 6 8 6 9 9 9 8 7 7 8 7 7 6 5 3 4 2 1 1 1 1 1 4 3 3 1 2 2 3 3 2 3 3 3 2 3 4 5 4 2 4 2 7 7 4 5 5 6 6 6 5 3 4 2 4
5 4 4 9 2 3 4 6 4 6 7 11 16 16 9 9 10 10 8 6 9 11 12 11 10 11 11 9 8 7 7 9 11 10 8 7 8 8 8 8 6 6 8 8 8 8 7 7 7 8 8 8 8 8 7 6 6 6 5 4 2 3 3 6 5 4 5 6 7 3 1 3 3 3 3 2 2 4 4 5 2 2 5 5 5 7 6 7 6 6 6 7 6 6 4 4 6
5 7 8 6 4 5 4 3 8 15 12 17 18 13 4 4 7 6 6 7 11 10 12 12 10 10 10 9 9 7 7 9 10 8 7 8 10 8 8 8 7 9 8 8 8 7 5 8 7 7 7 7 6 7 7 6 6 6 5 5 4 4 3 5 7 7 6 6 7 7 7 4 4 4 2 2 2 3 4 4 3 3 5 4 5 7 7 7 7 6 6 6 6 6 8 6 4
5 6 12 9 5 4 1 1 10 4 6 8 22 4 1 2 6 6 7 5 9 7 10 9 9 8 9 11 9 7 8 8 9 7 7 7 8 7 10 8 8 7 8 7 6 7 7 7 7 7 6 6 7 7 7 6 6 5 6 6 6 5 5 6 7 6 7 7 6 5 7 5 5 6 4 3 3 4 4 3 2 3 3 4 5 6 6 5 6 6 7 5 7 7 7 6 6
4 8 9 8 5 4 5 4 8 8 11 13 4 14 3 3 6 7 6 8 8 6 9 9 8 7 8 8 7 7 8 7 7 6 7 7 6 10 9 7 7 7 5 5 6 7 7 6 6 6 6 6 6 6 6 5 6 6 7 5 4 4 4 5 5 6 6 6 6 8 9 10 6 5 6 5 5 4 3 3 2 4 5 5 5 5 7 8 7 8 7 7 8 7 5 8 9
8 4 4 6 6 6 8 7 12 8 2 10 2 1 11 7 10 7 9 9 8 7 7 7 6 7 8 8 8 7 7 6 7 7 8 7 8 9 9 6 6 6 4 7 7 6 4 4 6 7 6 6 5 5 6 6 5 4 5 5 4 5 5 4 4 4 5 5 5 5 4 6 10 7 6 6 6 6 6 6 6 4 5 5 4 5 6 7 7 7 7 8 7 6 7 7 9
6 3 6 4 7 8 10 8 7 5 11 7 2 7 7 1 6 7 8 9 6 8 9 8 9 8 8 8 7 8 7 5 6 7 8 8 8 8 7 7 7 7 6 7 5 3 6 7 6 5 6 6 5 6 6 6 5 5 5 4 5 4 3 3 2 4 5 6 6 7 7 5 2 7 9 8 8 8 7 7 7 4 6 6 5 5 7 8 9 8 7 7 7 6 6 7 8
10 4 2 3 4 5 8 7 8 4 7 11 8 9 7 3 9 12 7 8 11 9 9 10 10 11 10 9 8 7 7 6 6 7 8 8 8 7 8 9 8 6 6 6 5 5 5 5 5 6 6 5 4 5 6 6 7 6 6 7 7 6 5 4 3 6 6 6 7 6 6 5 6 5 3 4 5 5 4 4 6 7 7 7 6 7 7 7 7 7 7 7 8 8 7 7 9
2 3 8 3 2 1 1 3 5 7 6 11 13 11 8 6 12 15 14 11 14 11 8 10 10 11 10 9 9 7 6 6 6 7 7 8 8 7 9 9 6 5 5 4 3 4 5 5 6 5 3 3 3 5 7 8 8 7 6 7 7 7 7 7 7 8 7 7 7 6 6 5 5 6 6 7 6 7 7 6 4 5 5 6 6 6 7 7 7 7 6 6 8 9 8 9 10
7 4 3 2 4 1 1 2 3 5 7 7 6 6 7 8 8 11 7 3 14 17 15 15 15 13 11 9 9 8 7 6 7 8 9 8 7 7 8 8 6 5 4 4 4 4 5 5 4 3 3 3 4 5 6 6 6 6 6 6 7 6 6 7 7 7 6 6 5 6 6 5 6 5 6 6 7 9 8 7 6 6 5 5 5 5 5 6 6 6 7 7 7 9 9 9 9
8 6 1 6 2 2 4 3 3 5 8 3 6 4 2 1 1 3 3 6 11 5 11 15 16 15 12 10 10 8 7 8 7 7 7 6 6 6 6 7 6 5 4 4 3 3 4 3 2 3 3 3 4 4 5 5 6 6 6 7 6 6 7 6 5 5 5 5 5 6 7 6 6 7 7 8 8 10 8 8 7 7 6 5 6 5 5 6 6 6 7 7 7 8 8 9 9
7 8 5 5 4 4 4 2 1 1 4 1 12 3 1 1 2 4 4 5 10 11 9 9 11 11 11 11 10 8 8 7 6 6 7 6 5 5 4 6 6 6 4 2 3 4 3 2 2 3 4 3 3 4 5 6 7 6 5 6 6 5 5 5 5 5 6 5 5 5 5 5 5 5 7 7 7 8 8 7 7 7 7 7 6 6 6 6 6 7 7 8 9 9 9 10 11
8 3 8 7 6 4 4 3 6 7 5 1 6 8 3 4 1 5 7 9 10 10 10 9 8 8 8 8 8 8 9 7 6 6 7 7 6 5 4 5 6 5 1 2 3 4 4 2 2 4 4 3 4 4 4 5 5 5 6 6 6 6 6 6 5 5 5 6 5 6 5 4 4 5 5 5 7 8 9 9 10 10 10 10 9 8 7 7 7 7 7 9 8 8 9 9 9
4 4 7 5 8 7 1 5 6 4 6 3 6 1 3 3 4 8 8 10 11 11 11 10 9 9 9 9 9 8 7 6 6 7 7 6 5 5 5 5 6 4 2 2 4 3 2 1 2 4 4 3 4 4 4 4 4 4 4 5 6 6 5 4 4 5 5 6 7 7 5 4 5 4 4 5 6 8 9 10 11 12 12 11 10 9 9 8 8 8 8 8 9 6 9 11 10
4 5 9 7 6 6 3 1 1 5 8 2 1 4 3 4 5 8 11 11 11 10 12 11 11 10 9 8 8 8 7 6 5 5 5 5 4 5 6 6 4 3 3 4 3 3 4 4 5 6 5 4 4 4 3 3 3 4 3 4 5 5 6 7 7 8 8 8 8 8 7 7 7 7 7 6 8 9 10 12 12 12 12 12 13 14 13 11 10 9 8 9 9 8 8 10 10
4 7 6 2 3 6 5 3 1 1 6 2 3 5 8 7 4 7 11 12 11 12 11 11 10 10 9 8 7 7 8 6 6 6 4 4 5 6 7 7 6 5 4 5 4 3 3 4 6 8 7 6 4 4 4 4 4 4 4 5 6 7 7 7 7 9 9 10 10 9 9 9 10 9 8 8 10 11 9 13 12 12 12 12 12 12 13 13 14 10 9 9 9 9 10 9 8
9 7 6 5 2 7 3 5 3 1 1 3 2 10 6 6 6 10 14 14 14 13 11 11 11 10 10 9 9 8 7 6 6 6 6 8 8 7 8 7 6 5 5 5 5 5 5 5 6 6 6 5 6 5 4 5 4 3 4 5 5 6 6 7 8 9 9 10 11 10 10 9 10 10 10 11 10 10 9 11 12 12 11 10 10 12 12 12 12 11 12 10 9 9 9 9 9
1 3 1 1 5 3 3 5 4 8 4 4 3 9 4 6 8 14 14 15 15 14 12 11 11 10 10 9 9 8 8 6 5 6 8 8 7 7 7 7 8 6 5 6 6 6 6 5 6 6 7 8 9 9 7 7 6 5 5 5 6 6 7 8 8 9 9 10 10 11 11 11 11 9 9 9 9 10 10 11 11 11 11 11 12 11 11 11 11 10 9 10 12 13 10 9 9
2 2 1 1 0 2 5 2 5 6 7 4 6 5 4 4 10 14 16 16 16 15 14 12 11 10 10 9 8 7 8 7 6 7 7 7 6 6 6 6 5 5 5 6 6 5 4 5 7 7 8 9 9 8 9 8 8 8 8 7 7 7 8 8 8 8 8 9 9 9 9 9 9 11 10 10 10 11 10 9 11 12 11 11 12 12 11 11 10 11 11 10 11 13 13 9 8
6 7 5 6 4 2 5 6 2 4 7 7 6 5 1 1 1 12 15 13 13 12 14 12 12 11 10 9 8 8 9 8 7 6 6 6 5 5 6 6 5 5 6 7 7 6 6 6 6 7 8 7 8 8 7 7 7 8 8 8 7 6 6 6 7 6 7 8 9 9 9 10 11 10 11 11 11 9 10 8 10 12 12 12 13 12 13 11 11 12 12 9 10 12 12 13 8
Wind_Direction
332 342 326 318 342 19 49 6 63 304 76 230 272 275 262 184 249 305 266 339 78 291 267 64 51 92 119 126 110 88 27 90 225 142 208 129 106 108 118 126 124 120 123 129 130 130 132 130 128 127 126 124 120 118 116 115 113 111 111 111 109 108 107 103 102 100 99 94 92 91 91 92 92 92 91 92 94 94 95 97 96 92 88 94 97 98 95 95 94 87 87 88 88 88 90 90 90
13 344 332 333 328 50 314 120 104 13 45 347 257 144 263 279 295 258 243 145 226 124 93 81 82 89 101 114 118 79 41 31 72 98 95 106 102 99 120 125 126 124 126 130 132 130 133 131 128 127 125 123 121 119 117 117 115 115 115 113 110 109 107 107 106 104 99 95 94 96 95 94 94 93 92 90 89 92 94 95 95 94 94 92 91 90 93 90 92 92 88 87 86 85 88 93 92
14 6 352 18 26 81 257 37 214 166 144 222 268 218 291 301 274 277 160 112 126 133 108 108 110 85 90 86 42 46 111 77 89 84 95 121 102 111 118 118 117 120 126 133 134 133 130 131 129 126 124 123 121 119 119 120 119 117 117 115 112 110 108 109 106 102 101 99 97 98 99 98 97 96 93 90 89 90 91 90 90 91 92 91 90 96 96 95 92 91 87 84 74 71 69 72 75
65 49 80 40 338 21 65 25 102 137 167 213 275 263 237 246 284 33 114 137 145 144 125 69 51 328 91 68 90 78 91 77 82 113 116 133 117 129 123 122 118 119 125 133 134 132 131 132 128 125 123 121 121 120 122 123 121 118 117 115 114 113 112 111 108 105 103 101 100 101 103 104 102 100 97 94 91 89 88 85 83 84 83 89 93 92 89 89 86 84 83 81 71 58 46 42 53
51 337 105 76 108 347 98 200 170 129 196 201 208 267 223 220 242 36 123 148 139 124 106 134 86 37 67 90 71 43 110 106 93 81 96 89 121 127 128 124 124 126 129 132 134 130 133 132 128 124 123 123 122 124 125 124 122 119 118 118 118 117 115 114 112 109 107 106 105 105 106 107 104 102 99 99 96 91 87 84 85 84 84 85 87 84 84 86 85 84 84 80 72 57 39 27 29
42 57 343 88 156 201 43 352 267 216 224 167 227 240 269 289 320 82 96 88 76 83 97 55 105 125 45 23 13 96 137 92 124 84 116 130 132 133 129 132 130 130 133 131 133 132 132 131 128 126 125 125 127 127 125 124 123 121 121 121 121 119 117 117 114 110 109 109 110 111 110 109 108 102 101 97 94 91 86 85 87 91 93 93 92 93 94 91 90 86 82 80 73 62 47 32 23
344 23 11 26 340 67 166 190 238 231 258 176 234 289 301 299 268 106 111 83 44 74 89 111 114 100 78 90 53 51 78 116 94 126 125 137 138 135 135 132 131 132 135 135 132 132 134 131 129 128 128 128 127 126 125 124 124 123 123 124 123 121 120 118 113 109 108 110 115 118 116 113 111 108 103 102 99 93 90 89 88 87 88 88 87 88 87 86 86 85 80 76 67 63 51 39 30
181 95 287 100 256 50 250 224 244 184 269 171 259 281 286 266 278 174 177 119 171 114 92 108 101 84 54 21 103 49 67 83 109 120 125 134 135 131 135 137 135 138 139 138 137 135 135 131 131 131 131 129 127 125 124 123 125 126 126 125 123 122 121 117 106 108 109 108 112 122 121 120 118 112 107 104 100 97 95 93 92 91 91 89 87 85 84 85 85 85 82 71 62 54 44 38 37
6 88 304 70 328 334 314 247 245 228 271 296 271 250 259 264 276 212 188 136 100 96 121 135 106 88 140 80 72 95 93 108 119 126 128 128 132 142 144 143 139 140 136 128 126 124 127 133 133 132 128 126 126 127 125 124 127 130 130 129 126 121 111 103 106 105 99 101 106 117 122 119 117 113 109 104 102 99 96 93 91 92 91 92 92 91 90 91 90 87 83 65 55 42 36 31 29
23 102 259 151 133 238 249 267 250 242 247 250 247 260 266 273 269 244 119 119 125 109 69 69 94 108 116 94 99 95 118 124 126 126 125 128 144 147 144 137 126 122 117 116 115 120 129 133 125 120 119 121 123 125 125 127 131 135 133 128 123 117 109 104 108 106 105 108 109 110 112 115 115 113 111 107 102 100 96 94 95 94 93 93 93 94 92 91 92 87 76 55 47 32 31 31 25
349 358 173 56 318 237 240 294 280 299 279 275 263 244 247 259 255 270 113 122 130 117 120 98 79 108 100 93 82 100 122 125 121 115 127 141 143 139 108 92 104 114 118 115 120 121 117 117 119 111 113 114 116 117 119 126 130 130 125 120 116 116 114 111 113 115 117 117 115 116 115 116 118 119 115 112 106 103 100 97 97 98 98 97 97 98 97 91 85 79 66 56 39 30 27 29 25
33 324 66 162 218 197 239 211 269 271 280 277 268 252 237 238 236 145 130 119 133 131 146 123 138 119 91 112 112 125 95 93 97 112 126 137 129 97 95 94 103 110 113 116 106 97 102 110 113 120 114 114 115 118 121 123 124 123 122 119 120 120 118 119 118 121 124 121 119 118 120 122 124 120 119 117 114 108 107 103 100 101 102 101 97 99 98 93 86 82 60 44 32 21 23 22 18
136 223 98 103 236 159 254 268 259 282 287 260 241 261 241 232 207 153 143 134 148 130 39 126 142 116 116 114 129 109 95 98 109 118 126 115 90 90 90 99 110 120 119 113 107 101 102 112 114 110 121 120 117 121 123 124 123 125 121 119 119 121 125 126 128 126 127 129 128 127 127 130 130 131 132 130 124 118 113 113 107 105 104 105 108 106 106 106 99 92 76 26 1 10 14 12 4
146 181 131 241 203 234 280 265 277 300 279 269 252 247 191 178 227 116 124 113 71 49 123 129 114 103 108 116 116 104 105 101 104 114 104 79 87 88 95 107 119 114 108 107 107 104 96 95 104 111 110 113 121 122 125 125 126 124 125 124 126 131 133 134 134 134 134 137 140 143 144 147 149 148 148 145 138 129 124 120 116 110 104 102 110 118 116 115 117 106 81 20 342 344 359 355 354
203 190 105 177 286 360 247 266 280 285 285 288 266 344 327 22 105 120 119 104 70 100 114 106 129 101 189 139 142 140 116 117 119 118 97 82 83 92 99 102 97 95 102 105 106 109 113 115 110 109 111 110 113 115 124 134 134 133 132 136 143 146 144 142 142 144 148 149 151 152 156 156 158 157 156 150 144 139 135 128 124 117 111 110 114 121 130 127 126 131 127 333 319 330 337 341 341
200 135 130 214 258 204 278 257 236 244 261 277 279 159 72 31 81 104 131 121 123 120 130 186 293 153 151 134 132 121 121 123 122 112 95 84 85 87 90 89 89 96 107 107 108 113 121 119 117 116 118 122 121 126 129 135 142 139 139 140 139 145 143 145 152 155 153 154 157 156 157 158 159 162 164 158 156 149 141 139 133 128 123 124 125 133 137 137 139 147 156 209 299 308 316 325 323
220 144 267 233 275 210 253 218 240 250 258 276 278 292 101 75 56 65 72 105 108 83 64 43 84 104 122 119 116 118 118 120 122 113 100 97 97 95 88 83 88 89 86 91 106 112 115 119 122 126 130 129 127 126 128 132 143 142 139 140 144 144 156 157 159 162 159 162 156 155 129 76 32 10 96 48 157 124 131 144 140 135 134 131 133 136 143 149 148 155 178 197 263 285 295 302 309
156 207 185 249 215 264 221 223 235 275 316 294 331 141 102 103 87 101 80 70 87 84 82 74 77 87 103 107 111 117 125 124 130 117 104 104 107 108 108 101 101 112 110 106 107 117 122 128 133 130 132 133 134 133 141 132 129 130 123 140 145 151 158 162 163 163 162 150 155 121 78 65 39 14 352 234 48 184 157 167 150 140 138 137 142 140 146 150 163 171 180 208 243 274 284 310 325
168 194 159 234 188 234 166 279 284 312 278 286 244 297 121 137 120 138 95 98 93 85 83 98 96 97 98 107 118 125 127 127 129 122 120 119 122 125 129 129 123 115 113 111 108 118 129 130 127 133 138 141 138 146 141 136 116 121 134 155 157 144 154 148 159 152 115 154 129 121 95 75 63 27 310 235 189 238 212 180 160 148 145 150 151 150 147 164 173 190 202 211 235 262 300 319 316
222 177 230 239 229 272 280 262 275 274 281 308 300 141 115 158 110 141 109 120 109 112 111 103 115 118 118 123 127 127 123 122 124 120 123 127 125 129 140 139 132 120 109 112 121 120 123 125 130 137 144 147 145 160 144 131 135 143 166 171 160 156 135 115 93 97 97 88 88 88 102 91 67 8 339 350 323 158 232 192 174 162 157 154 165 163 157 163 180 207 225 238 247 275 293 292 304
267 147 215 235 222 329 278 268 270 278 235 315 329 25 134 148 128 119 126 91 92 122 137 134 131 128 128 124 119 120 115 113 113 112 105 107 106 115 130 134 129 125 119 111 107 117 130 133 132 132 139 147 152 165 152 144 154 159 173 170 147 112 99 92 87 86 95 92 94 96 101 111 101 60 341 342 286 136 186 223 196 104 87 94 158 116 112 148 145 179 251 288 276 269 282 274 284
315 205 199 201 269 280 267 280 287 279 222 358 342 52 8 104 117 129 131 127 153 145 133 121 125 128 124 120 119 117 116 119 120 111 112 125 131 127 124 120 107 112 130 119 122 125 133 143 135 130 127 139 153 170 150 159 150 174 172 150 113 110 120 114 98 80 84 98 105 108 97 97 129 122 312 299 286 159 183 212 206 180 139 179 160 153 157 175 153 179 202 238 266 272 269 275 263
242 282 250 222 227 235 282 304 283 301 320 45 357 314 281 115 125 137 121 126 126 127 126 119 118 111 108 106 111 111 115 121 127 128 134 137 135 137 138 143 141 137 139 132 127 127 135 139 129 126 124 127 148 164 143 132 155 177 144 126 129 143 142 142 179 135 130 150 139 137 137 160 188 190 200 238 218 190 199 208 219 189 175 188 211 162 217 215 194 203 210 234 248 263 272 273 271
210 244 253 246 231 241 271 276 273 282 45 15 250 326 56 100 108 108 86 104 116 122 119 115 102 97 96 101 104 112 117 124 128 137 148 148 144 145 145 142 141 129 131 136 133 136 151 149 139 128 132 135 161 168 151 155 161 150 147 132 115 176 178 197 191 200 168 167 167 171 165 184 191 189 208 212 223 206 206 223 226 198 158 174 152 147 198 282 254 262 252 254 235 234 247 256 269
209 243 239 250 230 218 243 263 274 313 342 64 21 358 324 89 111 100 109 117 121 122 118 102 96 94 96 102 106 110 110 114 123 131 130 134 134 134 131 133 141 139 138 139 141 152 165 156 134 130 137 140 173 188 179 174 148 135 111 121 167 194 203 214 179 204 198 184 178 189 182 180 190 199 206 221 210 223 233 226 237 247 224 168 141 128 145 227 276 238 258 264 263 257 246 257 259
203 218 222 244 241 239 235 280 294 293 309 55 21 333 31 94 101 100 125 123 124 123 106 103 99 95 100 107 111 116 123 128 135 141 145 137 136 129 134 141 141 139 139 135 147 160 160 148 137 141 151 156 179 195 205 170 155 154 159 165 191 199 218 222 182 195 202 196 203 210 210 173 189 192 203 215 195 233 239 247 228 234 258 248 175 159 163 148 151 59 319 286 281 262 260 248 231
240 254 230 231 243 155 227 215 242 233 277 350 84 293 71 333 109 117 123 128 127 113 106 102 104 107 112 112 117 124 131 139 137 128 112 115 123 128 129 130 134 129 130 136 144 151 153 148 143 146 153 163 176 203 211 171 125 169 183 178 188 208 213 209 209 190 201 211 215 212 213 198 193 194 201 220 214 216 226 231 243 238 248 262 248 210 160 162 151 175 251 288 306 318 294 310 303
275 258 272 257 261 181 211 266 273 285 296 283 165 254 83 83 115 140 142 137 125 114 104 105 109 115 116 118 121 124 110 99 101 115 125 135 150 147 143 140 132 131 135 139 139 145 148 156 155 157 161 165 178 194 209 57 161 207 203 177 189 204 195 207 226 224 220 217 219 207 194 199 183 205 207 221 219 224 227 228 240 245 255 269 253 267 276 213 168 177 205 228 256 267 285 277 269
255 214 243 265 320 288 200 211 245 149 281 180 152 300 349 65 145 147 144 130 122 117 115 116 117 115 117 119 121 112 106 100 92 101 112 124 142 149 141 135 132 126 117 132 132 131 140 149 153 161 159 153 134 126 93 255 235 227 214 198 180 191 195 183 208 224 232 231 215 198 194 189 197 198 214 221 225 225 229 228 247 252 260 258 230 223 331 43 36 4 316 325 303 272 279 278 276
312 255 185 276 4 341 265 213 183 163 244 118 110 241 274 164 148 141 129 123 119 115 119 121 120 119 119 118 113 108 103 102 105 101 100 104 110 114 109 104 109 118 127 126 123 122 132 136 140 139 136 127 130 108 98 241 241 240 240 241 223 184 213 193 196 207 220 229 218 212 203 205 202 205 205 224 232 235 236 228 228 251 256 241 174 153 183 151 177 195 249 295 284 293 283 275 293
275 274 159 187 145 258 278 191 190 170 195 125 96 170 277 67 144 121 128 127 123 122 123 122 119 118 115 111 111 109 109 118 120 109 85 76 90 90 104 94 96 108 115 120 127 135 132 137 137 110 121 137 133 123 137 239 238 238 240 254 257 259 264 267 270 221 225 250 264 251 230 222 211 208 208 212 225 228 238 244 239 240 219 181 246 249 182 164 176 220 214 229 288 289 282 283 271
335 321 265 309 142 276 288 293 159 177 309 134 104 154 227 109 89 52 106 117 116 118 118 115 114 109 107 109 108 108 109 111 104 82 64 56 38 93 100 102 115 122 128 130 122 122 120 131 116 101 109 121 136 140 145 284 285 267 306 256 261 278 284 285 266 241 252 262 249 242 231 228 220 212 208 199 220 227 231 240 241 243 216 187 259 297 316 264 194 253 259 216 242 265 279 278 272
335 151 252 231 155 240 353 285 204 186 142 144 150 208 83 97 139 145 144 122 116 121 120 112 104 101 108 114 113 114 113 103 93 94 97 76 20 57 89 120 124 117 117 113 109 108 108 112 113 110 109 90 5 131 37 309 324 25 294 297 273 231 220 264 294 297 270 244 241 239 235 233 236 226 216 214 226 240 239 243 250 239 219 213 254 275 273 235 188 227 254 235 210 234 242 266 278
302 25 172 207 172 217 247 300 308 205 148 153 138 69 14 109 146 140 138 128 122 121 116 108 108 111 112 110 109 111 109 105 105 98 75 49 43 51 46 76 91 90 85 75 65 88 110 106 110 114 122 149 187 167 166 232 262 283 330 300 274 288 279 213 234 245 252 245 233 238 243 278 266 254 245 233 229 241 242 248 261 254 242 216 227 252 271 278 217 211 247 235 221 223 222 226 250
214 260 152 280 343 161 202 163 256 137 176 129 67 75 88 128 150 129 131 126 116 115 114 116 116 116 116 115 109 96 98 104 95 94 105 115 90 58 61 69 75 80 74 71 73 58 72 88 92 118 140 135 7 99 150 143 163 226 305 298 324 330 321 275 234 271 270 274 260 272 310 337 315 275 259 250 242 242 245 242 243 233 183 200 195 233 255 255 237 218 220 240 224 221 224 223 221
202 191 192 159 182 233 207 241 265 160 146 75 86 106 95 77 53 51 72 103 107 109 111 113 114 114 107 95 88 79 75 72 79 79 79 71 69 73 66 61 73 73 73 64 56 46 56 62 69 66 45 23 38 44 44 27 58 120 97 316 327 314 298 298 307 222 241 270 270 299 313 287 271 275 263 247 239 242 238 244 245 229 176 145 198 241 245 231 232 228 229 227 242 249 236 241 231
221 222 204 197 199 255 258 244 242 159 91 75 111 98 99 82 63 72 97 98 102 113 116 116 110 103 96 92 86 85 72 76 75 74 71 71 66 63 61 39 67 65 61 68 57 42 36 41 52 38 23 28 33 52 52 54 28 314 240 179 277 286 293 300 295 278 230 231 287 275 225 237 259 280 270 267 263 264 250 257 245 234 186 138 211 232 233 235 229 229 240 224 236 252 265 249 255
231 252 242 241 189 219 228 216 241 190 107 38 95 85 84 100 93 85 95 105 110 120 122 113 103 98 99 99 96 82 87 84 75 62 62 66 59 64 60 52 46 44 39 53 51 46 42 45 50 44 30 32 32 24 14 1 270 249 247 247 154 244 284 315 322 288 293 305 265 270 295 318 316 288 296 305 302 290 277 252 233 229 216 76 246 246 247 259 274 255 232 247 214 237 260 207 232
241 211 242 279 262 244 289 246 213 98 97 143 103 92 81 84 88 65 45 79 91 83 89 103 109 107 102 100 94 94 87 79 72 70 61 66 68 66 63 52 57 58 49 55 46 49 42 41 41 44 37 33 25 18 12 3 323 329 331 325 86 275 240 281 280 290 328 295 191 210 258 259 254 286 290 289 286 275 263 265 264 33 42 232 256 268 278 269 241 242 238 244 259 214 239 214 188
221 229 208 236 186 121 271 270 182 135 128 156 111 101 86 78 73 68 58 76 86 76 70 75 88 95 97 97 97 100 87 80 79 75 68 66 67 67 68 63 50 57 51 45 41 44 45 43 40 42 40 32 21 14 9 359 350 347 342 331 354 31 319 318 318 317 325 332 333 328 243 209 234 258 262 249 247 265 261 255 252 156 219 221 255 268 262 260 257 260 260 253 244 258 223 241 193
235 208 219 222 177 204 159 259 71 77 76 117 90 82 65 73 112 97 89 87 89 83 80 75 71 78 83 82 78 81 85 91 89 81 72 68 71 56 65 59 54 49 48 45 39 36 39 44 43 45 42 34 21 16 9 359 4 11 11 25 32 4 342 346 352 343 348 336 329 329 317 336 313 290 278 271 267 265 264 260 228 197 228 216 222 250 255 250 251 253 260 256 240 246 258 249 210
258 227 216 212 191 174 191 237 101 75 133 179 118 61 325 221 130 132 138 107 98 95 92 91 99 94 87 90 92 85 75 65 84 93 87 77 89 87 68 60 60 56 52 46 37 40 39 44 44 40 40 32 23 17 9 16 22 23 32 33 26 16 11 1 359 339 331 333 320 299 310 319 324 316 320 309 302 300 295 263 160 185 198 200 210 239 258 266 257 248 242 257 268 247 249 261 259
213 255 207 206 192 187 196 195 106 149 158 228 236 142 205 204 173 161 149 122 110 102 106 115 113 104 104 103 100 94 92 91 85 93 93 90 88 84 71 63 62 63 52 55 44 43 37 45 51 48 43 36 23 20 16 21 31 31 36 40 36 47 44 22 357 346 336 328 331 328 321 321 321 319 313 315 312 303 284 276 236 223 221 216 220 226 240 242 245 245 251 232 237 248 241 257 254
235 225 168 173 184 201 224 216 170 189 175 186 34 129 141 181 193 175 156 126 131 123 126 126 124 111 107 107 106 103 96 95 103 95 94 99 88 86 89 79 65 63 55 51 40 39 37 54 53 46 43 40 30 27 31 25 36 33 43 36 39 40 40 25 358 6 1 351 3 348 316 304 307 310 307 308 307 308 311 307 297 291 288 269 247 239 243 251 255 251 235 234 237 233 235 241 254
232 216 167 169 175 201 221 212 163 198 141 213 99 118 71 139 159 165 152 131 166 158 151 148 132 120 116 108 107 102 100 105 105 101 95 86 82 85 91 82 67 52 48 51 36 20 39 38 45 49 42 37 25 29 39 32 31 32 42 39 40 38 28 23 358 20 22 11 13 3 7 5 343 293 307 315 308 303 303 280 271 266 251 255 236 237 243 247 248 250 246 238 233 238 237 244 256
252 239 229 152 159 200 209 198 134 170 167 190 189 181 114 147 168 167 186 169 183 175 164 153 144 138 133 123 113 108 109 104 98 101 101 97 96 92 93 88 78 66 53 49 30 29 39 38 37 46 42 35 26 30 38 39 37 38 44 34 34 24 14 17 28 37 30 18 10 1 358 2 359 351 318 288 284 288 272 243 226 236 233 238 231 234 244 243 243 243 238 236 240 247 240 228 239
244 214 240 217 69 209 341 85 132 102 212 209 189 195 133 166 197 181 176 206 179 155 161 152 145 136 131 125 122 122 116 115 108 100 96 98 95 94 89 88 90 77 67 69 50 27 21 27 38 46 18 22 34 44 43 37 38 35 38 37 37 29 18 19 26 32 25 19 7 355 355 356 360 352 341 336 336 334 330 316 286 245 236 234 238 248 248 247 242 237 241 241 246 246 245 243 244
214 244 212 171 328 312 264 13 129 136 228 224 202 202 173 177 202 206 220 118 168 165 157 154 145 140 135 132 130 127 126 120 109 102 99 96 96 92 90 90 85 78 66 42 24 16 19 18 26 44 12 14 17 31 51 52 44 35 34 35 38 34 33 34 31 28 21 12 358 351 345 355 1 347 343 342 343 342 338 326 318 311 289 272 263 245 246 259 259 248 247 243 242 242 245 244 243
209 226 138 150 251 127 245 104 205 199 191 224 162 144 32 298 193 284 201 139 147 149 148 146 141 139 137 131 129 125 121 117 108 105 99 95 96 98 96 102 98 88 67 45 17 352 4 16 11 49 14 12 33 40 53 46 46 31 29 29 27 29 34 38 31 24 14 12 359 1 2 359 350 351 352 346 345 342 337 331 329 324 319 304 293 276 256 260 258 247 242 246 250 254 251 249 252
189 201 171 140 156 178 206 247 207 307 277 286 162 198 125 2 77 20 103 129 134 129 127 128 131 135 135 132 131 128 120 112 105 103 104 106 99 95 102 99 100 79 51 20 16 31 34 48 28 52 34 38 54 55 57 59 47 32 29 33 27 27 35 31 30 21 10 12 11 6 3 358 351 349 340 343 338 331 332 333 328 330 329 322 311 294 282 270 262 252 249 251 253 254 253 249 248
208 140 154 177 148 162 199 185 170 187 194 348 354 165 257 153 291 90 98 109 106 110 118 121 121 124 123 121 113 108 103 98 105 106 111 112 108 105 99 91 84 87 70 346 24 38 39 21 21 45 50 43 64 59 56 52 48 43 27 30 30 33 30 24 23 10 8 10 9 5 357 348 346 336 332 330 339 349 354 355 360 357 351 339 329 316 302 289 275 268 261 258 255 249 250 252 252
217 172 91 126 208 139 136 205 148 180 105 45 7 101 347 63 93 99 104 104 104 115 119 124 126 126 120 110 108 109 105 106 102 104 108 118 128 119 103 91 87 93 80 37 41 64 67 52 46 52 68 71 73 70 61 61 48 49 51 43 37 34 29 22 17 13 12 17 13 8 354 346 346 334 340 339 1 5 5 6 7 2 353 343 335 329 321 310 299 288 281 275 270 261 261 259 257
233 126 207 210 145 109 98 86 136 97 71 44 201 103 77 127 77 104 114 111 119 124 130 131 132 127 121 119 119 116 115 109 100 98 109 118 113 99 92 86 90 76 50 30 58 105 105 54 37 46 55 62 66 72 73 67 51 52 44 53 43 36 35 28 23 20 16 18 14 9 1 355 358 6 360 0 7 12 12 19 11 8 4 360 357 354 341 328 312 295 288 286 283 275 265 260 256
131 196 244 192 131 112 133 190 300 33 144 150 169 167 161 157 171 158 135 134 143 139 143 138 131 130 122 118 118 120 117 114 104 96 91 80 70 62 56 57 53 60 57 59 49 37 52 48 48 59 58 63 62 66 57 50 46 33 24 27 35 40 34 27 30 30 24 21 17 8 3 6 5 1 4 7 9 12 15 23 12 10 5 3 1 355 353 349 338 313 292 283 279 276 270 262 255
166 195 206 149 214 221 312 110 197 112 90 163 208 163 189 203 146 159 161 155 155 153 143 134 132 126 121 120 118 116 111 101 95 86 70 64 67 69 80 83 80 67 62 62 55 42 37 38 52 65 69 61 60 58 54 37 31 39 40 42 44 44 35 36 40 40 32 28 22 16 10 6 2 5 7 7 6 6 13 25 11 360 350 349 349 354 352 350 344 341 335 316 297 283 274 265 259
98 129 64 196 103 148 128 195 165 116 173 134 169 169 225 198 168 170 163 159 157 151 143 139 131 126 124 124 124 123 119 106 95 85 79 78 73 76 78 81 74 65 59 55 55 48 42 48 61 65 60 57 53 48 44 40 32 37 36 41 38 36 37 35 43 44 38 35 30 23 16 15 9 3 6 6 8 7 13 34 11 358 353 355 354 347 346 339 339 342 339 335 329 316 294 278 269
172 143 242 160 6 220 117 89 135 154 155 181 140 201 242 228 165 167 167 164 162 154 144 136 130 127 121 120 122 119 105 102 99 95 95 88 80 74 73 78 78 64 55 56 54 53 46 51 60 58 63 57 55 51 50 48 47 42 43 40 39 40 40 39 38 39 44 39 35 29 24 20 20 21 10 12 11 10 6 36 13 2 358 356 352 347 345 342 338 335 335 329 329 330 319 298 284
158 160 190 165 105 148 185 253 11 98 121 165 151 216 262 279 146 168 160 162 145 142 134 129 127 121 119 118 114 112 107 100 94 95 98 89 80 73 71 69 61 59 48 51 50 52 50 55 62 65 60 56 60 53 56 55 53 51 50 46 44 43 47 45 42 34 39 43 38 31 24 25 30 25 23 19 13 15 6 19 18 5 4 359 355 351 348 345 340 337 332 331 325 330 329 318 291